Weather in Berezniki

Russia / Mari El Republic     55°57′42″N   48°17′55″E
temp.,
°C
wind,
m/s
gust,
m/s
humid.,
%
clouds,
%
prec.,
mm/h
press.,
hPa
HPBL,
m
25 february, thu
thu2500:00−24wsw1196100 0.0 103520
03:00−24ssw229684 0.0 103420
06:00−23s3594100 0.0 1031117
09:00−20sse5990100 0.0 1028285
12:00−17sse61095100 0.2 1024395
15:00−15sse71294100 1.0 1021569
18:00−15sse61194100 1.1 1019614
21:00−15sse61094100 1.8 1018504
26 february, fri
fri2600:00−15sse51095100 0.4 1016389
03:00−15se4995100 0.7 1016364
06:00−15se499597 0.2 1013283
09:00−13se479397 0.3 1013336
12:00−10se5893100 0.2 1011401
15:00−9se61093100 0.3 1008427
18:00−8se71395100 1.2 1003409
21:00−6se71395100 5.0 998425
27 february, sat
sat2700:00−1sse3799100 4.9 994240
03:00+1w71398100 5.6 993590
06:00+1w61196100 0.6 992689
09:000w5999100 1.1 993535
12:000wnw4799100 0.4 994417
15:00−4n5694100 0.8 996393
18:00−9n5994100 0.4 997462
21:00−10nnw51093100 0.9 1000484
28 february, sun
sun2800:00−14nnw51193100 0.1 1001390
03:00−16nnw51094100 0.1 1004340
06:00−18nnw5109489 0.0 1006295
09:00−18nnw599278 0.0 1008364
12:00−14nnw599090 0.0 1010514
15:00−13nnw598995 0.0 1011601
18:00−16nnw4993100 0.0 1013293
21:00−18nnw489586 0.0 1016186
1 march, mon
mon100:00−20nnw36970 0.0 1017121
03:00−21nnw47970 0.0 1019133
06:00−23nnw36976 0.0 1021111
09:00−19nnw46945 0.0 1023245
12:00−14nnw358852 0.0 1023378
15:00−11nw358971 0.0 1023460
18:00−15w339679 0.0 102245
21:00−16sw369587 0.0 1021108